Location: Kumla
(59.1265°N, 15.1401°E)
Time: 07:49:19
(UTC+01:00)

Transit 2A - Pass Details

Date: 05 December 2023
Orbit: 600 x 953 km, 66.7° (Epoch: 21 February)

Event Time Altitude Azimuth Distance (km) Brightness Sun altitude
Rises 01:12:50 0° 305° (NW) 2,869 - -50.3°
Reaches altitude 10° 01:16:12 10° 277° (W) 1,950 - -50.1°
Maximum altitude 01:18:10 13° 250° (WSW) 1,762 - -50.0°
Drops below altitude 10° 01:20:09 10° 223° (SW) 1,957 - -49.8°
Sets 01:23:33 0° 195° (SSW) 2,888 - -49.6°
